Philadelphia, PA

10:29 AM EST on November 20, 2019 (GMT -0500)
Philadelphia International

Weather History for KPHL - May, 2019

Change the Weather History Date:

Thursday, May 2, 2019

  Actual Average Record
Temperature  
Mean Temperature 68 °F 60 °F  
Max Temperature 83 °F 70 °F 89 °F (2010)
Min Temperature 53 °F 50 °F 35 °F (1960)
Degree Days  
Heating Degree Days 0 6  
Month to date heating degree days 8 13  
Since 1 July heating degree days 4293 4503  
Cooling Degree Days 3 1  
Month to date cooling degree days 3 2  
Year to date cooling degree days 27 15  
Growing Degree Days 18 (Base 50)    
Moisture  
Dew Point 56 °F    
Average Humidity 74    
Maximum Humidity 100    
Minimum Humidity 47    
Precipitation  
Precipitation 0.00 in 0.11 in 2.49 in (1989)
Month to date precipitation 0.00 0.21  
Year to date precipitation 14.06 13.24  
Snow  
Snow 0.00 in 0.00 in 0.00 in ()
Month to date snowfall 0.0 0.0  
Since 1 July snowfall 17.1 22.4  
Snow Depth 0.00 in    
Sea Level Pressure  
Sea Level Pressure 30.12 in    
Wind  
Wind Speed 6 mph (SSE)    
Max Wind Speed 17 mph    
Max Gust Speed 21 mph    
Visibility 6 miles    
Events      
T = Trace of Precipitation, MM = Missing Value Source: NWS Daily Summary

Daily Weather History Graph

Daily Weather History Graph

Search for Another Location

Airport or City:

Astronomy

May. 02, 2019 Rise Set
Actual Time 6:00 AM EDT 7:56 PM EDT
Civil Twilight 5:31 AM EDT 8:25 PM EDT
Nautical Twilight 4:55 AM EDT 9:01 PM EDT
Astronomical Twilight 4:16 AM EDT 9:40 PM EDT
Moon 5:11 AM EDT (5/2) 5:41 PM EDT (5/2)
Length of Visible Light 14h 54m
Length of Day
13h 55m
Waning Crescent, 5% of the Moon is Illuminated
May 2
Waning Crescent
May 4
New
May 11
First Quarter
May 18
Full
May 26
Last Quarter

Hourly Weather History & Observations

Time (EDT) Temp. Heat Index Dew Point Humidity Pressure Visibility Wind Dir Wind Speed Gust Speed Precip Events Conditions
12:54 AM 53.1 °F - 52.0 °F 96% 30.17 in 0.8 mi NE 3.5 mph - N/A   Overcast
1:30 AM 53.1 °F - 52.0 °F 96% 30.16 in 2.0 mi Calm Calm - N/A   Overcast
1:54 AM 54.0 °F - 52.0 °F 93% 30.15 in 2.0 mi Calm Calm - N/A   Overcast
2:44 AM 54.0 °F - 52.0 °F 93% 30.13 in 1.5 mi Calm Calm - N/A   Overcast
2:54 AM 54.0 °F - 52.0 °F 93% 30.13 in 1.5 mi Calm Calm - N/A   Overcast
3:06 AM 54.0 °F - 52.0 °F 93% 30.14 in 0.8 mi Calm Calm - N/A   Overcast
3:54 AM 54.0 °F - 52.0 °F 93% 30.12 in 0.8 mi Calm Calm - N/A   Overcast
4:54 AM 54.0 °F - 53.1 °F 97% 30.13 in 0.8 mi Calm Calm - N/A   Overcast
5:54 AM 54.0 °F - 53.1 °F 97% 30.13 in 0.8 mi North 4.6 mph - N/A   Overcast
6:23 AM 54.0 °F - 53.1 °F 97% 30.13 in 1.0 mi North 4.6 mph - N/A   Overcast
6:54 AM 55.0 °F - 53.1 °F 93% 30.14 in 1.2 mi Calm Calm - N/A   Overcast
7:54 AM 55.9 °F - 54.0 °F 93% 30.15 in 1.5 mi Calm Calm - N/A   Overcast
8:38 AM 57.9 °F - 55.0 °F 90% 30.15 in 2.0 mi Calm Calm - N/A   Overcast
8:54 AM 59.0 °F - 55.0 °F 87% 30.15 in 3.0 mi SE 3.5 mph - N/A   Overcast
9:04 AM 59.0 °F - 55.0 °F 87% 30.14 in 4.0 mi Calm Calm - N/A   Overcast
9:22 AM 60.1 °F - 55.0 °F 83% 30.15 in 5.0 mi SW 3.5 mph - N/A   Haze
9:54 AM 60.1 °F - 55.0 °F 83% 30.14 in 6.0 mi SSW 5.8 mph - N/A   Haze
10:21 AM 62.1 °F - 55.9 °F 80% 30.14 in 7.0 mi SSW 6.9 mph - N/A   Mostly Cloudy
10:54 AM 64.0 °F - 55.9 °F 75% 30.14 in 9.0 mi WSW 6.9 mph - N/A   Mostly Cloudy
11:54 AM 68.0 °F - 57.9 °F 70% 30.13 in 9.0 mi SW 5.8 mph - N/A   Scattered Clouds
12:54 PM 72.0 °F - 59.0 °F 64% 30.11 in 10.0 mi Variable 6.9 mph - N/A   Scattered Clouds
1:54 PM 75.9 °F - 61.0 °F 60% 30.09 in 10.0 mi SW 5.8 mph - N/A   Mostly Cloudy
2:54 PM 79.0 °F - 61.0 °F 54% 30.09 in 10.0 mi SSW 6.9 mph - N/A   Scattered Clouds
3:54 PM 82.0 °F 82.7 °F 61.0 °F 49% 30.06 in 10.0 mi SSW 9.2 mph - N/A   Scattered Clouds
4:54 PM 82.0 °F 82.7 °F 61.0 °F 49% 30.04 in 10.0 mi SSW 9.2 mph - N/A   Mostly Cloudy
5:54 PM 80.1 °F 81.5 °F 63.0 °F 56% 30.05 in 10.0 mi SW 11.5 mph - N/A   Mostly Cloudy
6:54 PM 77.0 °F - 64.0 °F 64% 30.05 in 10.0 mi SSW 5.8 mph - N/A   Mostly Cloudy
7:54 PM 75.9 °F - 64.0 °F 67% 30.06 in 10.0 mi South 3.5 mph - N/A   Mostly Cloudy
8:54 PM 71.1 °F - 63.0 °F 75% 30.09 in 10.0 mi ENE 10.4 mph - N/A   Mostly Cloudy
9:54 PM 66.9 °F - 59.0 °F 76% 30.14 in 10.0 mi East 12.7 mph - N/A   Overcast
10:49 PM 60.8 °F - 55.4 °F 82% 30.14 in 10.0 mi East 15.0 mph - N/A   Overcast
10:54 PM 61.0 °F - 55.9 °F 83% 30.14 in 10.0 mi East 16.1 mph - N/A   Overcast
11:19 PM 59.0 °F - 55.0 °F 87% 30.14 in 10.0 mi East 13.8 mph - N/A   Overcast
11:37 PM 57.9 °F - 55.0 °F 90% 30.15 in 10.0 mi East 12.7 mph - N/A   Overcast
11:54 PM 57.0 °F - 54.0 °F 89% 30.15 in 10.0 mi ENE 9.2 mph - N/A   Overcast